sat.trackr.live / text

‹ back to catalog

STARLINK-32855

NORAD 62813 · 2025-018H

PAYLOAD ACTIVE UNKNOWN

§ Identity

Operator
Country
US
Launch date
2025-01-24
Launch site
AFWTR
Launch vehicle
Mass (kg)
RCS (m²)

Purposes: comms

External: N2YO · Heavens-Above · Gunter

§ Orbital elements

Epoch: 2026-05-25T04:20:21.926112Z

Period
94.10 min
Inclination
53.1603°
Eccentricity
0.0001644
Mean motion
15.30211620 rev/d
Perigee alt
474.1 km
Apogee alt
476.3 km
Semi-major
6,853.3 km
B*
5.3642e-4
RAAN
314.0085°
Arg perigee
86.7319°
Mean anomaly
273.3870°
Rev number
7,488

§ Raw data

STARLINK-328551 62813U 25018H   26145.18080933  .00015567  00000+0  53642-3 0  99922 62813  53.1603 314.0085 0001644  86.7319 273.3870 15.30211620 74888

JSON: /api/v1/satellites/62813 · /tle

For live sub-satellite position, see the globe view (requires WebGL).

§ Visibility from observer

Set your observer location to see the next 7 days of passes ≥ 10°. The values pass through the URL so the page stays shareable.

No JS? Fill the form by hand. The geolocation button needs JavaScript.